Location: Putah Creek Observatory
(38.7021°N, 122.3865°W)
Time: 13:29:12
(UTC-07:00)

ISS - Pass Details

Date: 27 March 2019
Orbit: 408 x 410 km, 51.6° (Epoch: 24 April)

Event Time Altitude Azimuth Distance (km) Brightness Sun altitude
Rises 19:48:37 0° 271° (W) 2,331 2.7 -4.8°
Reaches altitude 10° 19:51:11 10° 292° (WNW) 1,472 0.6 -5.3°
Maximum altitude 19:53:30 18° 337° (NNW) 1,100 -1.2 -5.7°
Drops below altitude 10° 19:55:50 10° 22° (NNE) 1,474 -1.1 -6.2°
Sets 19:58:25 0° 43° (NE) 2,337 -0.3 -6.7°
